User: anonymous   Login
Location: PACMO
(41.3967°N, 90.3760°W)
Time: 22:55:28
(UTC-05:00)
Language:

BREEZE-M DEB (TANK) - Orbit

View from above orbital plane
View from above orbital plane
View from above satellite
View from above satellite

Ground track
Ground track

The orbit data is extracted from the following two-line orbital elements,

1 31863U 07032B   15242.23562595  .00000206  00000-0  18689-3 0  9997
2 31863 045.9127 192.6948 4985102 141.7377 267.2015 05.51621935163256
Epoch (UTC): 30 August 2015 05:39:18
Eccentricity: 0.4985102
inclination: 45.9127°
perigee height: 407 km
apogee height: 13897 km
right ascension of ascending node: 192.6948°
argument of perigee: 141.7377°
revolutions per day: 5.51621935
mean anomaly at epoch: 267.2015°
orbit number at epoch: 16325

The dashed part of the orbit path shows where the satellite is in the earth's shadow,  

DLR